This is the latest recevied weather packets stored in our database for station/object K7SKM. If no packets are shown the sender has not sent any weather packets the latest 10 day(s).
| Time | Temp. | Humidity | Pressure | Rain* | Wind** | Luminosity | Snow |
|---|---|---|---|---|---|---|---|
| 1777749747 | 21.11° C | 54% | 1020.4 hPa | 0 mm | - | 413 W/m² | - |
| 1777749443 | 20.56° C | 57% | 1020.5 hPa | 0 mm | - | 402 W/m² | - |
| 1777749141 | 19.44° C | 59% | 1020.6 hPa | 0 mm | - | 394 W/m² | - |
| 1777748838 | 18.89° C | 59% | 1020.4 hPa | 0 mm | - | 395 W/m² | - |
| 1777748536 | 19.44° C | 60% | 1020.7 hPa | 0 mm | - | 392 W/m² | - |
| 1777748235 | 20° C | 59% | 1020.8 hPa | 0 mm | - | 393 W/m² | - |
| 1777747932 | 19.44° C | 59% | 1020.8 hPa | 0 mm | - | 395 W/m² | - |
| 1777747629 | 20° C | 58% | 1021 hPa | 0 mm | - | 391 W/m² | - |
| 1777747324 | 20° C | 58% | 1020.9 hPa | 0 mm | - | 384 W/m² | - |
| 1777747021 | 19.44° C | 58% | 1020.9 hPa | 0 mm | - | 388 W/m² | - |
| 1777746717 | 20° C | 57% | 1020.8 hPa | 0 mm | - | 385 W/m² | - |
| 1777746412 | 20° C | 58% | 1021 hPa | 0 mm | - | 370 W/m² | - |
| 1777746108 | 18.33° C | 61% | 1021.2 hPa | 0 mm | - | 367 W/m² | - |
| 1777745806 | 18.89° C | 60% | 1021 hPa | 0 mm | - | 366 W/m² | - |
| 1777745505 | 18.89° C | 59% | 1021 hPa | 0 mm | - | 362 W/m² | - |
| 1777745201 | 18.89° C | 58% | 1021.2 hPa | 0 mm | - | 347 W/m² | - |
| 1777744899 | 18.89° C | 58% | 1021.1 hPa | 0 mm | - | 355 W/m² | - |
| 1777744597 | 17.78° C | 61% | 1021.2 hPa | 0 mm | - | 338 W/m² | - |
| 1777744293 | 18.33° C | 60% | 1021.3 hPa | 0 mm | - | 309 W/m² | - |
| 1777743991 | 18.33° C | 60% | 1021 hPa | 0 mm | - | 302 W/m² | - |
| 1777743687 | 18.33° C | 60% | 1021.2 hPa | 0 mm | - | 280 W/m² | - |
| 1777743384 | 17.78° C | 60% | 1021.2 hPa | 0 mm | - | 230 W/m² | - |
| 1777743082 | 18.33° C | 61% | 1021.1 hPa | 0 mm | - | 227 W/m² | - |
| 1777742779 | 17.22° C | 63% | 1021.2 hPa | 0 mm | - | 248 W/m² | - |
| 1777742476 | 17.78° C | 64% | 1021.4 hPa | 0 mm | - | 238 W/m² | - |
* Rain latest hour (hover to see other rain measurements)
** Current wind speed in m/s (hover to see current wind gust speed)